Location: Prairie State College
(41.5244°N, 87.6382°W)
Time: 14:22:30
(UTC-05:00)

Amateur Radio Satellites - All Passes

Search period start: 18 April 2015 13:52
Search period end: 19 April 2015 13:52
Location: Prairie State College, 41.5244°N, 87.6382°W

Satellite Date Start Highest point End Downlink Frequencies (MHz)
Time Altitude Azimuth
ISS 18 Apr 13:54:06 13:55:30 12° 131° (SE) 13:57:01 145.825
ITAMSAT 1 18 Apr 13:55:22 14:00:20 49° 71° (ENE) 14:05:21 435.822/435.867
SPROUT 18 Apr 14:00:37 14:04:22 28° 290° (WNW) 14:08:01 437.525
BEESAT 18 Apr 14:00:38 14:04:58 34° 97° (E) 14:09:19 436.000
TISAT 1 18 Apr 14:01:19 14:05:09 33° 289° (WNW) 14:08:57 437.305
SWISSCUBE 18 Apr 14:01:39 14:06:05 38° 97° (E) 14:10:31 437.505
HORYU 2 18 Apr 14:15:08 14:16:51 12° 62° (ENE) 14:18:47 437.375
KKS-1 18 Apr 14:32:55 14:34:59 13° 89° (E) 14:37:17 437.445
BEESAT 2 18 Apr 14:53:47 14:57:11 24° 246° (WSW) 15:00:27 435.950
ITUPSAT 1 18 Apr 15:01:59 15:06:41 58° 287° (WNW) 15:11:21 437.325
BEESAT 3 18 Apr 15:03:33 15:06:12 16° 249° (WSW) 15:08:41 437.485
AIST 2 18 Apr 15:03:34 15:07:46 60° 241° (WSW) 15:11:52 435.215
JAS-2 18 Apr 15:07:28 15:14:26 39° 66° (ENE) 15:21:31 435.910
SO-50 18 Apr 15:14:29 15:18:19 23° 318° (NW) 15:22:09 436.795
Cosmos 2504 18 Apr 15:15:29 15:24:13 62° 283° (WNW) 15:33:01 435.465 / 435.565
Gurwin Techsat 1B 18 Apr 15:17:11 15:22:05 36° 264° (W) 15:26:57 435.225
ISS 18 Apr 15:28:15 15:31:30 75° 325° (NW) 15:34:47 145.825
RS-15 18 Apr 15:30:10 15:40:37 57° 114° (ESE) 15:51:19 29.354- 29.394
AO-7 18 Apr 15:32:17 15:40:25 65° 68° (ENE) 15:48:37 29.400- 29.500
ITAMSAT 1 18 Apr 15:36:16 15:40:10 20° 268° (W) 15:43:54 435.822/435.867
BEESAT 18 Apr 15:38:44 15:42:41 26° 293° (WNW) 15:46:33 436.000
SWISSCUBE 18 Apr 15:39:58 15:43:45 23° 294° (WNW) 15:47:26 437.505
GONETS M04 18 Apr 15:45:16 15:49:01 14° 77° (ENE) 15:53:26
STARS 18 Apr 15:45:32 15:49:52 51° 100° (E) 15:54:13 437.465
HORYU 2 18 Apr 15:48:30 15:52:58 72° 258° (WSW) 15:57:28 437.375
KKS-1 18 Apr 16:07:40 16:12:05 58° 287° (WNW) 16:16:28 437.445
JAS-2 18 Apr 16:51:47 16:59:16 50° 263° (W) 17:06:49 435.910
ISS 18 Apr 17:05:54 17:08:19 19° 345° (NNW) 17:10:43 145.825
MOZHAYETS 4 18 Apr 17:12:45 17:17:11 45° 98° (E) 17:21:35
Cosmos 2504 18 Apr 17:15:55 17:19:57 13° 306° (NW) 17:23:22 435.465 / 435.565
STARS 18 Apr 17:23:09 17:25:58 16° 295° (WNW) 17:28:38 437.465
CUTE-I 18 Apr 17:25:15 17:29:45 29° 67° (ENE) 17:34:21 437.470
AO-7 18 Apr 17:26:56 17:33:52 28° 267° (W) 17:40:34 29.400- 29.500
Cubesat XI-IV 18 Apr 17:32:08 17:36:52 34° 68° (ENE) 17:41:40 437.490
GONETS M04 18 Apr 17:35:51 17:44:32 77° 95° (E) 17:53:22
PCSat 18 Apr 17:41:32 17:44:40 16° 39° (NE) 17:47:57 145.827
RS-15 18 Apr 17:42:56 17:53:21 47° 318° (NW) 18:04:00 29.354- 29.394
Cosmos 2499 18 Apr 18:10:01 18:16:19 24° 82° (E) 18:22:58 435.465 / 435.565
DANDE 18 Apr 18:13:23 18:15:47 25° 91° (E) 18:18:40 436.750
CUSAT 1 18 Apr 18:25:17 18:28:13 65° 97° (E) 18:31:58 437.405
CUBESAT XI-V 18 Apr 18:27:18 18:30:48 22° 92° (E) 18:34:24 437.345
M-CUBED/EXP-1 PRIME 18 Apr 18:29:41 18:33:35 30° 99° (E) 18:37:15 437.505
STRAND 1 18 Apr 18:37:09 18:39:35 14° 88° (E) 18:42:19 437.568
ISS 18 Apr 18:43:45 18:45:37 14° 5° (N) 18:47:31 145.825
MOZHAYETS 4 18 Apr 18:50:50 18:54:07 19° 294° (WNW) 18:57:14
CUTE-I 18 Apr 19:04:49 19:09:45 36° 263° (W) 19:14:38 437.470
PRISM 18 Apr 19:11:54 19:15:45 38° 98° (E) 19:19:35 437.425
Cubesat XI-IV 18 Apr 19:12:15 19:17:00 31° 265° (W) 19:21:41 437.490
AUBIESAT-1 18 Apr 19:19:11 19:23:39 87° 289° (WNW) 19:27:44 437.475
PCSat 18 Apr 19:23:34 19:29:02 82° 62° (ENE) 19:34:27 145.827
CUTE 1.7 + AOD 2 18 Apr 19:28:09 19:29:29 12° 64° (ENE) 19:31:03 437.475
VERMONT LUNAR 18 Apr 19:32:49 19:35:10 18° 151° (SSE) 19:37:33 437.305
GONETS M04 18 Apr 19:35:40 19:42:31 24° 297° (WNW) 19:49:06
HO-68 18 Apr 19:57:10 20:03:53 46° 66° (ENE) 20:10:41 435.675
AAUSAT CUBESAT 2 18 Apr 19:58:17 20:00:27 14° 65° (ENE) 20:02:48 437.432
DANDE 18 Apr 19:58:41 19:59:27 11° 299° (WNW) 20:00:06 436.750
Cosmos 2499 18 Apr 19:59:50 20:08:43 77° 280° (W) 20:17:33 435.465 / 435.565
RS-15 18 Apr 20:01:23 20:09:36 22° 350° (N) 20:17:56 29.354- 29.394
CUBESAT XI-V 18 Apr 20:04:09 20:08:24 37° 289° (WNW) 20:12:35 437.345
M-CUBED/EXP-1 PRIME 18 Apr 20:04:32 20:08:22 27° 298° (WNW) 20:11:52 437.505
STRAND 1 18 Apr 20:14:19 20:19:25 69° 286° (WNW) 20:24:27 437.568
BRITE-PL 18 Apr 20:19:43 20:23:52 84° 78° (ENE) 20:28:03 437.365/2234.400
ISS 18 Apr 20:19:50 20:22:46 30° 24° (NNE) 20:25:42 145.825
PHONESAT 2.4 18 Apr 20:21:15 20:23:34 17° 150° (SSE) 20:25:57 2401.200-2431.200
DOVE 4 18 Apr 20:24:37 20:28:27 38° 71° (ENE) 20:32:27 437.250
SO-50 18 Apr 20:25:59 20:27:14 11° 30° (NNE) 20:28:39 436.795
CINEMA 3 18 Apr 20:30:28 20:33:47 23° 68° (ENE) 20:37:17 145.822/145.860
UWE-3 18 Apr 20:31:41 20:32:34 11° 62° (ENE) 20:33:41 435.000/436.395/437.385
COMPASS 1 18 Apr 20:42:19 20:46:23 48° 73° (ENE) 20:50:30 437.405
GOMX 1 18 Apr 20:47:34 20:51:42 76° 258° (WSW) 20:55:56 467.674
PRISM 18 Apr 20:48:08 20:50:58 18° 294° (WNW) 20:53:40 437.425
CANX-2 18 Apr 20:50:13 20:54:31 83° 258° (WSW) 20:58:51 2200.000
SEEDS 18 Apr 20:55:10 20:59:27 84° 75° (ENE) 21:03:45 437.485
AUBIESAT-1 18 Apr 20:57:00 20:57:41 10° 306° (NW) 20:58:08 437.475
FUNcube-1 18 Apr 21:00:25 21:03:09 17° 66° (ENE) 21:06:05 145.935
CUTE 1.7 + AOD 2 18 Apr 21:00:37 21:04:54 70° 259° (WSW) 21:09:13 437.475
VERMONT LUNAR 18 Apr 21:09:00 21:12:20 54° 167° (SSE) 21:15:39 437.305
PCSat 18 Apr 21:09:11 21:11:49 13° 256° (WSW) 21:14:09 145.827
UKube-1 18 Apr 21:18:46 21:21:39 18° 66° (ENE) 21:24:41 .
ZACube-1 18 Apr 21:21:30 21:25:08 29° 69° (ENE) 21:28:56 437.345
CUBEBUG 2 18 Apr 21:21:41 21:25:42 43° 72° (ENE) 21:29:54 437.445
YUBILEINY 18 Apr 21:29:14 21:35:48 24° 63° (ENE) 21:42:38 435.215
AAUSAT CUBESAT 2 18 Apr 21:31:34 21:35:41 53° 261° (W) 21:39:50 437.432
Oscar 11 18 Apr 21:38:45 21:43:05 85° 77° (ENE) 21:47:29 145.826/435.025
50 SAT 18 Apr 21:44:04 21:46:18 15° 66° (ENE) 21:48:41 437.505
HO-68 18 Apr 21:45:15 21:51:46 35° 264° (W) 21:58:13 435.675
ISS 18 Apr 21:56:08 21:59:12 38° 222° (SW) 22:02:13 145.825
DELFI C3 18 Apr 21:57:29 22:01:35 78° 258° (WSW) 22:05:42 145.870
PHONESAT 2.4 18 Apr 21:57:56 22:01:25 51° 165° (SSE) 22:04:55 2401.200-2431.200
Cosmos 2499 18 Apr 21:57:59 22:03:35 17° 302° (WNW) 22:08:40 435.465 / 435.565
DX 1 18 Apr 21:59:05 22:03:16 51° 73° (ENE) 22:07:30 434.975-435.025
DOVE 4 18 Apr 22:03:40 22:06:30 17° 270° (W) 22:09:14 437.250
SO-50 18 Apr 22:04:12 22:09:01 50° 52° (NE) 22:13:49 436.795
UWE-3 18 Apr 22:04:15 22:08:30 77° 258° (WSW) 22:12:54 435.000/436.395/437.385
CINEMA 3 18 Apr 22:07:08 22:10:53 30° 265° (W) 22:14:43 145.822/145.860
RS-15 18 Apr 22:17:50 22:27:06 28° 25° (NNE) 22:36:55 29.354- 29.394
HUMSAT D 18 Apr 22:19:30 22:23:37 61° 75° (ENE) 22:27:49 437.325/437.525
COMPASS 1 18 Apr 22:19:59 22:22:24 14° 270° (W) 22:24:40 437.405
VELOX 1 18 Apr 22:35:06 22:39:24 55° 73° (ENE) 22:43:44 145.980
FUNcube-1 18 Apr 22:35:06 22:39:10 44° 262° (W) 22:43:21 145.935
ANTELSAT 18 Apr 22:45:00 22:48:58 27° 94° (E) 22:52:59 437.575/2403.000
VERMONT LUNAR 18 Apr 22:46:25 22:49:47 75° 185° (S) 22:53:10 437.305
AISAT 18 Apr 22:49:40 22:54:04 83° 76° (ENE) 22:58:29 437.250
QB50P1 18 Apr 22:52:27 22:54:39 14° 90° (E) 22:57:01 145.935-145.965
UKube-1 18 Apr 22:53:26 22:57:32 42° 261° (W) 23:01:39 .
ZACube-1 18 Apr 22:57:59 23:01:32 25° 267° (W) 23:05:05 437.345
CUBEBUG 2 18 Apr 22:59:57 23:02:44 16° 270° (W) 23:05:24 437.445
ESTCUBE 1 18 Apr 23:01:25 23:05:51 57° 73° (ENE) 23:10:19 437.505/2401.250
CUBEBUG 1 18 Apr 23:03:29 23:07:42 52° 73° (ENE) 23:11:56 437.445
BUGSAT 1 18 Apr 23:09:53 23:12:07 15° 91° (E) 23:14:31 437.445
Cosmos 2491 18 Apr 23:11:14 23:19:22 48° 89° (E) 23:27:40 435.465 / 435.565
QB50P2 18 Apr 23:14:36 23:18:09 25° 94° (E) 23:21:46 145.880/145.840
50 SAT 18 Apr 23:17:00 23:20:49 44° 262° (W) 23:24:40 437.505
TISAT 1 18 Apr 23:19:17 23:21:53 17° 66° (ENE) 23:24:38 437.305
SPROUT 18 Apr 23:19:34 23:22:43 21° 67° (ENE) 23:25:58 437.525
YUBILEINY 18 Apr 23:24:57 23:33:45 77° 265° (W) 23:42:24 435.215
PHONESAT 2.4 18 Apr 23:36:01 23:39:36 77° 183° (S) 23:43:10 2401.200-2431.200
DX 1 18 Apr 23:37:27 23:39:53 14° 270° (W) 23:42:08 434.975-435.025
POPSAT HIP 1 18 Apr 23:37:28 23:41:35 44° 99° (E) 23:45:42 437.405
NANOSAT C BR1 18 Apr 23:37:53 23:41:58 44° 99° (E) 23:46:05 145.865
TIGRISAT 18 Apr 23:38:41 23:43:26 88° 283° (WNW) 23:48:08 435.000
UNISAT 6 18 Apr 23:39:22 23:44:08 84° 284° (WNW) 23:48:50 437.425
SO-50 18 Apr 23:45:28 23:49:17 22° 248° (WSW) 23:52:56 436.795
HUMSAT D 18 Apr 23:58:27 23:59:53 11° 272° (W) 00:01:04 437.325/437.525
O/OREOS (USA 219) 18 Apr 23:59:26 00:04:01 75° 111° (ESE) 00:08:36 437.305
POLYITAN 1 19 Apr 00:03:25 00:07:45 90° 102° (ESE) 00:12:04 437.675
VELOX 1 19 Apr 00:14:06 00:16:23 13° 271° (W) 00:18:28 145.980
DUCHIFAT 1 19 Apr 00:14:12 00:18:27 72° 285° (WNW) 00:22:42 145.980
ANTELSAT 19 Apr 00:21:32 00:25:46 32° 290° (WNW) 00:29:55 437.575/2403.000
VERMONT LUNAR 19 Apr 00:24:02 00:27:10 37° 200° (SSW) 00:30:18 437.305
QB50P1 19 Apr 00:26:42 00:30:52 50° 287° (WNW) 00:35:01 145.935-145.965
RS-15 19 Apr 00:30:32 00:42:03 72° 53° (NE) 00:54:06 29.354- 29.394
ITUPSAT 1 19 Apr 00:32:45 00:36:01 19° 65° (ENE) 00:39:26 437.325
AIST 1 19 Apr 00:35:38 00:37:06 12° 86° (E) 00:38:50
ESTCUBE 1 19 Apr 00:40:45 00:43:10 14° 271° (W) 00:45:22 437.505/2401.250
CUBEBUG 1 19 Apr 00:42:05 00:44:27 14° 270° (W) 00:46:36 437.445
BUGSAT 1 19 Apr 00:43:57 00:47:53 45° 287° (WNW) 00:51:49 437.445
QB50P2 19 Apr 00:50:20 00:54:02 28° 291° (WNW) 00:57:41 145.880/145.840
TISAT 1 19 Apr 00:53:24 00:57:23 43° 261° (W) 01:01:24 437.305
SPROUT 19 Apr 00:54:42 00:58:37 34° 263° (W) 01:02:32 437.525
BEESAT 19 Apr 01:07:12 01:11:40 41° 71° (ENE) 01:16:10 436.000
SWISSCUBE 19 Apr 01:08:17 01:12:51 45° 71° (ENE) 01:17:26 437.505
Cosmos 2491 19 Apr 01:08:29 01:16:29 38° 290° (WNW) 01:24:25 435.465 / 435.565
Cosmos 2504 19 Apr 01:09:07 01:17:11 52° 75° (ENE) 01:24:41 435.465 / 435.565
POPSAT HIP 1 19 Apr 01:14:19 01:17:10 17° 294° (WNW) 01:19:53 437.405
PHONESAT 2.4 19 Apr 01:14:20 01:17:43 42° 199° (SSW) 01:21:05 2401.200-2431.200
NANOSAT C BR1 19 Apr 01:14:42 01:17:31 17° 294° (WNW) 01:20:12 145.865
TIGRISAT 19 Apr 01:18:30 01:19:31 10° 299° (WNW) 01:20:16 435.000
YUBILEINY 19 Apr 01:24:55 01:29:13 14° 283° (WNW) 01:32:53 435.215
KKS-1 19 Apr 01:31:56 01:34:00 14° 63° (ENE) 01:36:16 437.445
O/OREOS (USA 219) 19 Apr 01:41:43 01:44:04 13° 310° (NW) 01:46:15 437.305
Oscar 19 19 Apr 01:50:23 01:55:12 37° 97° (E) 02:00:01 437.125/150
Gurwin Techsat 1B 19 Apr 01:56:27 01:57:06 10° 85° (E) 01:58:08 435.225
ITUPSAT 1 19 Apr 02:08:56 02:13:36 49° 261° (W) 02:18:16 437.325
ITAMSAT 1 19 Apr 02:09:11 02:12:23 17° 90° (E) 02:15:48 435.822/435.867
AIST 1 19 Apr 02:10:03 02:14:20 56° 281° (W) 02:18:36
STARS 19 Apr 02:42:36 02:46:46 45° 72° (ENE) 02:50:59 437.465
RS-15 19 Apr 02:43:46 02:53:51 34° 253° (WSW) 03:03:53 29.354- 29.394
BEESAT 19 Apr 02:46:00 02:49:43 21° 268° (W) 02:53:19 436.000
SWISSCUBE 19 Apr 02:47:28 02:50:58 19° 268° (W) 02:54:20 437.505
PHONESAT 2.4 19 Apr 02:53:59 02:55:28 12° 213° (SSW) 02:56:51 2401.200-2431.200
Cosmos 2504 19 Apr 03:03:13 03:10:17 32° 275° (W) 03:16:43 435.465 / 435.565
KKS-1 19 Apr 03:05:47 03:10:10 63° 259° (WSW) 03:14:36 437.445
CUSAT 1 19 Apr 03:19:19 03:21:44 12° 60° (ENE) 03:24:50 437.405
Oscar 19 19 Apr 03:30:00 03:34:25 28° 293° (WNW) 03:38:44 437.125/150
Gurwin Techsat 1B 19 Apr 03:32:37 03:37:58 88° 97° (E) 03:43:17 435.225
AO-7 19 Apr 03:35:07 03:40:33 20° 89° (E) 03:46:27 29.400- 29.500
HORYU 2 19 Apr 03:40:24 03:43:50 22° 93° (E) 03:47:21 437.375
GONETS M04 19 Apr 03:46:13 03:54:18 39° 70° (ENE) 04:02:28
ITAMSAT 1 19 Apr 03:47:16 03:52:22 59° 288° (WNW) 03:57:26 435.822/435.867
JAS-2 19 Apr 04:03:04 04:08:35 28° 90° (E) 04:13:42 435.910
MOZHAYETS 4 19 Apr 04:14:42 04:19:04 44° 72° (ENE) 04:23:31
STARS 19 Apr 04:20:41 04:23:31 16° 269° (W) 04:26:12 437.465
AUBIESAT-1 19 Apr 04:33:58 04:36:44 16° 58° (ENE) 04:39:43 437.475
BEESAT 2 19 Apr 04:46:58 04:50:59 58° 119° (ESE) 04:55:05 435.950
DANDE 19 Apr 04:49:21 04:55:36 44° 75° (ENE) 05:03:17 436.750
BEESAT 3 19 Apr 04:55:11 04:59:16 86° 122° (ESE) 05:03:25 437.485
CUSAT 1 19 Apr 04:58:48 05:05:36 64° 78° (ENE) 05:13:42 437.405
AIST 2 19 Apr 05:01:57 05:05:32 27° 114° (ESE) 05:09:14 435.215
Gurwin Techsat 1B 19 Apr 05:14:48 05:17:17 13° 300° (WNW) 05:19:30 435.225
HORYU 2 19 Apr 05:16:28 05:20:37 36° 290° (WNW) 05:24:42 437.375
M-CUBED/EXP-1 PRIME 19 Apr 05:17:11 05:21:38 44° 66° (ENE) 05:26:15 437.505
AO-7 19 Apr 05:26:07 05:34:29 85° 289° (WNW) 05:42:49 29.400- 29.500
CUBESAT XI-V 19 Apr 05:31:05 05:34:39 23° 67° (ENE) 05:38:19 437.345
GONETS M04 19 Apr 05:42:59 05:51:22 48° 271° (W) 05:59:37
CUTE-I 19 Apr 05:45:03 05:45:32 10° 86° (E) 05:46:25 437.470
JAS-2 19 Apr 05:47:31 05:54:05 49° 292° (WNW) 05:59:49 435.910
Cubesat XI-IV 19 Apr 05:50:58 05:53:01 13° 87° (E) 05:55:25 437.490
Cosmos 2499 19 Apr 05:52:17 05:59:43 39° 71° (ENE) 06:06:42 435.465 / 435.565
STRAND 1 19 Apr 05:52:45 05:56:34 22° 65° (ENE) 06:00:30 437.568
MOZHAYETS 4 19 Apr 05:53:12 05:56:33 19° 269° (W) 05:59:47
PRISM 19 Apr 06:02:21 06:06:00 30° 70° (ENE) 06:09:41 437.425
AUBIESAT-1 19 Apr 06:06:20 06:11:00 69° 255° (WSW) 06:15:49 437.475
BEESAT 2 19 Apr 06:26:39 06:29:31 17° 318° (NW) 06:32:17 435.950
DANDE 19 Apr 06:32:42 06:38:52 38° 267° (W) 06:46:06 436.750
BEESAT 3 19 Apr 06:35:52 06:37:56 13° 322° (NW) 06:39:53 437.485
AIST 2 19 Apr 06:40:12 06:44:04 32° 311° (NW) 06:47:56 435.215
CUSAT 1 19 Apr 06:42:23 06:48:10 27° 270° (W) 06:54:26 437.405
M-CUBED/EXP-1 PRIME 19 Apr 06:53:01 06:56:41 22° 264° (W) 07:00:21 437.505
CUBESAT XI-V 19 Apr 07:07:35 07:11:55 37° 263° (W) 07:16:13 437.345
AO-7 19 Apr 07:20:27 07:26:16 21° 308° (NW) 07:31:48 29.400- 29.500
CUTE-I 19 Apr 07:21:10 07:26:31 88° 103° (ESE) 07:31:50 437.470
Cubesat XI-IV 19 Apr 07:28:32 07:33:52 80° 287° (WNW) 07:39:12 437.490
STRAND 1 19 Apr 07:30:33 07:35:30 47° 261° (W) 07:40:25 437.568
PRISM 19 Apr 07:38:09 07:41:31 23° 266° (W) 07:44:47 437.425
Cosmos 2499 19 Apr 07:45:32 07:52:55 41° 272° (W) 07:59:42 435.465 / 435.565
BRITE-PL 19 Apr 08:23:26 08:27:34 28° 95° (E) 08:32:02 437.365/2234.400
DOVE 4 19 Apr 08:24:25 08:26:27 13° 88° (E) 08:28:49 437.250
O/OREOS (USA 219) 19 Apr 08:31:15 08:34:04 16° 52° (NE) 08:37:00 437.305
CANX-2 19 Apr 08:36:38 08:39:23 17° 91° (E) 08:42:17 2200.000
SEEDS 19 Apr 08:41:07 08:43:18 14° 89° (E) 08:45:40 437.485
CUTE 1.7 + AOD 2 19 Apr 08:46:39 08:49:46 20° 92° (E) 08:52:58 437.475
GOMX 1 19 Apr 08:48:21 08:52:45 32° 96° (E) 08:57:28 467.674
CUTE-I 19 Apr 09:03:25 09:05:56 13° 300° (WNW) 09:08:12 437.470
Cubesat XI-IV 19 Apr 09:11:33 09:13:13 11° 302° (WNW) 09:14:36 437.490
HO-68 19 Apr 09:11:52 09:18:43 46° 99° (E) 09:25:34 435.675
AAUSAT CUBESAT 2 19 Apr 09:15:03 09:18:25 23° 93° (E) 09:21:49 437.432
CUBEBUG 2 19 Apr 09:15:25 09:16:00 10° 86° (E) 09:16:55 437.445
Cosmos 2491 19 Apr 09:21:38 09:28:19 24° 63° (ENE) 09:35:18 435.465 / 435.565
Oscar 11 19 Apr 09:27:22 09:29:52 15° 90° (E) 09:32:32 145.826/435.025
DELFI C3 19 Apr 09:38:29 09:40:35 14° 90° (E) 09:42:52 145.870
ANTELSAT 19 Apr 09:44:32 09:48:04 24° 67° (ENE) 09:51:46 437.575/2403.000
QB50P1 19 Apr 09:46:45 09:48:07 12° 64° (ENE) 09:49:43 145.935-145.965
UWE-3 19 Apr 09:54:29 09:58:07 23° 92° (E) 10:01:53 435.000/436.395/437.385
DOVE 4 19 Apr 09:59:48 10:04:45 76° 284° (WNW) 10:09:55 437.250
CINEMA 3 19 Apr 10:00:35 10:05:26 60° 100° (E) 10:10:24 145.822/145.860
COMPASS 1 19 Apr 10:01:09 10:05:24 88° 292° (WNW) 10:09:37 437.405
BRITE-PL 19 Apr 10:01:46 10:06:07 34° 289° (WNW) 10:10:44 437.365/2234.400
BUGSAT 1 19 Apr 10:01:53 10:02:56 11° 64° (ENE) 10:04:12 437.445
PCSat 19 Apr 10:05:05 10:10:28 75° 117° (ESE) 10:15:55 145.827
HUMSAT D 19 Apr 10:06:36 10:07:03 10° 87° (E) 10:07:48 437.325/437.525
QB50P2 19 Apr 10:08:18 10:11:21 20° 67° (ENE) 10:14:32 145.880/145.840
O/OREOS (USA 219) 19 Apr 10:09:30 10:13:56 55° 252° (WSW) 10:18:17 437.305
CANX-2 19 Apr 10:11:30 10:15:34 41° 288° (WNW) 10:19:35 2200.000
SEEDS 19 Apr 10:15:19 10:19:28 49° 286° (WNW) 10:23:33 437.485
CUTE 1.7 + AOD 2 19 Apr 10:21:53 10:25:50 35° 289° (WNW) 10:29:43 437.475
FUNcube-1 19 Apr 10:23:12 10:27:24 35° 96° (E) 10:31:37 145.935
GOMX 1 19 Apr 10:26:34 10:30:50 30° 290° (WNW) 10:35:16 467.674
VELOX 1 19 Apr 10:28:35 10:29:03 10° 87° (E) 10:29:49 145.980
POPSAT HIP 1 19 Apr 10:30:38 10:34:24 34° 70° (ENE) 10:38:14 437.405
NANOSAT C BR1 19 Apr 10:30:47 10:34:33 34° 71° (ENE) 10:38:23 145.865
YUBILEINY 19 Apr 10:31:15 10:37:59 26° 83° (E) 10:45:01 435.215
TIGRISAT 19 Apr 10:37:25 10:41:50 82° 76° (ENE) 10:46:25 435.000
UNISAT 6 19 Apr 10:38:20 10:42:47 87° 76° (ENE) 10:47:22 437.425
UKube-1 19 Apr 10:40:54 10:44:42 30° 96° (E) 10:48:33 .
AISAT 19 Apr 10:41:35 10:44:13 16° 91° (E) 10:47:02 437.250
ZACube-1 19 Apr 10:45:21 10:49:55 62° 100° (E) 10:54:29 437.345
CUBEBUG 2 19 Apr 10:48:36 10:53:22 82° 283° (WNW) 10:58:09 437.445
AAUSAT CUBESAT 2 19 Apr 10:50:24 10:54:04 29° 290° (WNW) 10:57:39 437.432
50 SAT 19 Apr 10:54:40 10:57:48 22° 93° (E) 11:00:59 437.505
ESTCUBE 1 19 Apr 10:56:15 10:57:44 12° 88° (E) 10:59:29 437.505/2401.250
POLYITAN 1 19 Apr 10:56:29 11:00:40 68° 74° (ENE) 11:04:53 437.675
HO-68 19 Apr 10:59:52 11:06:19 36° 297° (WNW) 11:12:39 435.675
Oscar 11 19 Apr 11:02:10 11:06:23 47° 287° (WNW) 11:10:32 145.826/435.025
DUCHIFAT 1 19 Apr 11:06:33 11:10:45 86° 74° (ENE) 11:14:58 145.980
DELFI C3 19 Apr 11:12:09 11:16:03 44° 287° (WNW) 11:19:53 145.870
Cosmos 2491 19 Apr 11:17:26 11:26:15 76° 265° (W) 11:35:03 435.465 / 435.565
QB50P1 19 Apr 11:19:20 11:23:31 66° 259° (W) 11:27:43 145.935-145.965
ANTELSAT 19 Apr 11:20:39 11:24:43 33° 264° (W) 11:28:50 437.575/2403.000
DX 1 19 Apr 11:23:11 11:27:34 85° 284° (WNW) 11:31:55 434.975-435.025
UWE-3 19 Apr 11:30:27 11:34:46 37° 289° (WNW) 11:39:04 435.000/436.395/437.385
BUGSAT 1 19 Apr 11:33:58 11:37:58 64° 259° (W) 11:41:58 437.445
HUMSAT D 19 Apr 11:39:03 11:43:24 71° 285° (WNW) 11:47:42 437.325/437.525
CINEMA 3 19 Apr 11:39:04 11:42:14 17° 295° (WNW) 11:45:16 145.822/145.860
QB50P2 19 Apr 11:43:12 11:47:04 34° 263° (W) 11:50:57 145.880/145.840
PCSat 19 Apr 11:50:35 11:54:32 20° 317° (NW) 11:58:23 145.827
FUNcube-1 19 Apr 11:59:51 12:03:35 24° 292° (WNW) 12:07:12 145.935
VELOX 1 19 Apr 12:01:48 12:06:13 73° 285° (WNW) 12:10:38 145.980
POPSAT HIP 1 19 Apr 12:07:14 12:10:24 20° 267° (W) 12:13:29 437.405
NANOSAT C BR1 19 Apr 12:07:22 12:10:31 20° 267° (W) 12:13:36 145.865
AISAT 19 Apr 12:16:51 12:21:09 48° 287° (WNW) 12:25:25 437.250
UKube-1 19 Apr 12:17:12 12:20:45 24° 292° (WNW) 12:24:13 .
AIST 1 19 Apr 12:17:14 12:21:06 33° 76° (ENE) 12:24:58
SO-50 19 Apr 12:20:57 12:23:24 15° 109° (ESE) 12:26:05 436.795
ZACube-1 19 Apr 12:23:12 12:25:50 15° 296° (WNW) 12:28:16 437.345
YUBILEINY 19 Apr 12:25:22 12:34:09 67° 281° (W) 12:42:59 435.215
CUBEBUG 1 19 Apr 12:28:16 12:32:37 77° 284° (WNW) 12:36:58 437.445
50 SAT 19 Apr 12:29:06 12:32:40 29° 290° (WNW) 12:36:10 437.505
ESTCUBE 1 19 Apr 12:30:41 12:35:09 65° 286° (WNW) 12:39:35 437.505/2401.250
TISAT 1 19 Apr 12:37:57 12:41:35 28° 95° (E) 12:45:16 437.305
SPROUT 19 Apr 12:40:54 12:44:57 38° 97° (E) 12:49:00 437.525
BEESAT 2 19 Apr 13:06:20 13:10:13 38° 50° (NE) 13:14:03 435.950
Oscar 19 19 Apr 13:07:17 13:12:16 54° 72° (ENE) 13:17:20 437.125/150
SWISSCUBE 19 Apr 13:11:01 13:12:13 11° 87° (E) 13:13:45 437.505
BEESAT 3 19 Apr 13:14:03 13:18:05 53° 54° (NE) 13:22:04 437.485
Gurwin Techsat 1B 19 Apr 13:16:06 13:19:40 19° 63° (ENE) 13:23:25 435.225
Cosmos 2491 19 Apr 13:17:26 13:21:47 14° 283° (WNW) 13:25:30 435.465 / 435.565
AIST 2 19 Apr 13:23:27 13:26:47 22° 44° (NE) 13:30:08 435.215
ITAMSAT 1 19 Apr 13:27:01 13:31:18 27° 66° (ENE) 13:35:40 435.822/435.867
